EN

Hourly Weather Lugovye

Today, 28 November, Saturday

Time Temperature Precipitation Wind Pressure Humidity
00:00 -1°C° 0.2 mm 2 mps 743 mmHg 94%
01:00 -2°C° 0.2 mm 2 mps 743 mmHg 96%
02:00 -2°C° 0 mm 2 mps 744 mmHg 97%
03:00 -2°C° 0.3 mm 2 mps 744 mmHg 97%
04:00 -2°C° 0.3 mm 2 mps 744 mmHg 97%
05:00 -2°C° 0.3 mm 2 mps 744 mmHg 97%
06:00 -2°C° 0.2 mm 2 mps 745 mmHg 97%
07:00 -2°C° 0.2 mm 2 mps 745 mmHg 97%
08:00 -2°C° 0 mm 2 mps 746 mmHg 97%
09:00 -2°C° 0.1 mm 2 mps 746 mmHg 95%
10:00 -2°C° 0.1 mm 2 mps 747 mmHg 93%
11:00 -2°C° 0.1 mm 2 mps 748 mmHg 91%
12:00 -1°C° 0 mm 2 mps 748 mmHg 91%
13:00 -1°C° 0 mm 2 mps 748 mmHg 90%
14:00 -1°C° 0 mm 2 mps 749 mmHg 91%
15:00 -1°C° 0 mm 2 mps 749 mmHg 92%
16:00 -1°C° 0 mm 3 mps 749 mmHg 94%
17:00 0°C° 0 mm 3 mps 750 mmHg 95%
18:00 -1°C° 0 mm 3 mps 750 mmHg 95%
19:00 -1°C° 0 mm 3 mps 750 mmHg 94%
20:00 -1°C° 0 mm 3 mps 751 mmHg 94%
21:00 -1°C° 0 mm 3 mps 751 mmHg 94%
22:00 -1°C° 0 mm 3 mps 751 mmHg 93%
23:00 -1°C° 0 mm 3 mps 751 mmHg 93%

Tomorrow, 29 November, Sunday

Time Temperature Precipitation Wind Pressure Humidity
00:00 -2°C° 0 mm 3 mps 751 mmHg 93%
01:00 -2°C° 0 mm 3 mps 751 mmHg 94%
02:00 -2°C° 0 mm 3 mps 751 mmHg 94%
03:00 -3°C° 0 mm 4 mps 751 mmHg 93%
04:00 -3°C° 0 mm 4 mps 751 mmHg 92%
05:00 -3°C° 0 mm 4 mps 750 mmHg 91%
06:00 -3°C° 0.2 mm 4 mps 750 mmHg 92%
07:00 -2°C° 0.2 mm 4 mps 750 mmHg 94%
08:00 -2°C° 0.2 mm 5 mps 750 mmHg 95%
09:00 -2°C° 0.5 mm 4 mps 749 mmHg 95%
10:00 -2°C° 0.5 mm 4 mps 749 mmHg 95%
11:00 -2°C° 0.5 mm 4 mps 749 mmHg 96%
12:00 -1°C° 0.2 mm 3 mps 749 mmHg 96%
13:00 0°C° 0.2 mm 3 mps 749 mmHg 96%
14:00 +1°C° 0.2 mm 2 mps 749 mmHg 97%
15:00 +1°C° 0 mm 2 mps 749 mmHg 96%
16:00 +1°C° 0 mm 2 mps 749 mmHg 95%
17:00 -1°C° 0 mm 2 mps 749 mmHg 94%
18:00 -1°C° 0 mm 2 mps 749 mmHg 93%
19:00 -1°C° 0 mm 2 mps 749 mmHg 91%
20:00 -2°C° 0 mm 2 mps 750 mmHg 89%
21:00 -2°C° 0 mm 2 mps 750 mmHg 89%
22:00 -1°C° 0 mm 3 mps 750 mmHg 89%
23:00 -1°C° 0 mm 3 mps 750 mmHg 89%

Day after tomorrow, 30 November, Monday

Time Temperature Precipitation Wind Pressure Humidity
00:00 -2°C° 0 mm 3 mps 750 mmHg 91%
01:00 -2°C° 0 mm 2 mps 751 mmHg 93%
02:00 -3°C° 0 mm 2 mps 751 mmHg 95%
03:00 -3°C° 0 mm 2 mps 751 mmHg 95%
04:00 -3°C° 0 mm 2 mps 751 mmHg 95%
05:00 -3°C° 0 mm 2 mps 750 mmHg 95%
06:00 -3°C° 0.1 mm 2 mps 751 mmHg 96%
07:00 -3°C° 0.1 mm 2 mps 751 mmHg 96%
08:00 -2°C° 0.1 mm 2 mps 751 mmHg 97%
09:00 -2°C° 0 mm 2 mps 751 mmHg 95%
10:00 -2°C° 0 mm 3 mps 751 mmHg 92%
11:00 -1°C° 0 mm 3 mps 751 mmHg 90%
12:00 -2°C° 0 mm 3 mps 751 mmHg 90%
13:00 -2°C° 0 mm 3 mps 751 mmHg 90%
14:00 -2°C° 0 mm 3 mps 751 mmHg 89%
15:00 -2°C° 0 mm 3 mps 751 mmHg 89%
16:00 -2°C° 0 mm 2 mps 751 mmHg 89%
17:00 -2°C° 0 mm 2 mps 751 mmHg 88%
18:00 -2°C° 0 mm 2 mps 752 mmHg 89%
19:00 -2°C° 0 mm 3 mps 752 mmHg 89%
20:00 -2°C° 0 mm 3 mps 752 mmHg 89%
21:00 -4°C° 0 mm 3 mps 752 mmHg 90%
22:00 -3°C° 0 mm 2 mps 752 mmHg 91%
23:00 -3°C° 0 mm 2 mps 752 mmHg 92%

1 December, Tuesday

Time Temperature Precipitation Wind Pressure Humidity
00:00 -3°C° 0 mm 2 mps 752 mmHg 93%
01:00 -4°C° 0 mm 2 mps 753 mmHg 93%
02:00 -4°C° 0 mm 2 mps 753 mmHg 94%
03:00 -4°C° 0 mm 2 mps 753 mmHg 95%
04:00 -4°C° 0 mm 2 mps 753 mmHg 95%
05:00 -5°C° 0 mm 2 mps 753 mmHg 96%
06:00 -4°C° 0 mm 2 mps 753 mmHg 95%
07:00 -5°C° 0 mm 3 mps 754 mmHg 94%
08:00 -5°C° 0 mm 3 mps 754 mmHg 93%
09:00 -5°C° 0 mm 3 mps 754 mmHg 91%
10:00 -4°C° 0 mm 3 mps 754 mmHg 88%
11:00 -4°C° 0 mm 3 mps 755 mmHg 86%
12:00 -2°C° 0 mm 3 mps 755 mmHg 86%
13:00 -2°C° 0 mm 3 mps 755 mmHg 85%
14:00 -2°C° 0 mm 2 mps 755 mmHg 85%
15:00 -3°C° 0 mm 2 mps 756 mmHg 87%
16:00 -3°C° 0 mm 2 mps 756 mmHg 90%
17:00 -2°C° 0 mm 1 mps 756 mmHg 93%
18:00 -4°C° 0 mm 2 mps 756 mmHg 93%
19:00 -4°C° 0 mm 2 mps 757 mmHg 94%
20:00 -4°C° 0 mm 2 mps 757 mmHg 94%
21:00 -2°C° 0 mm 1 mps 757 mmHg 94%
22:00 -3°C° 0 mm 1 mps 757 mmHg 94%
23:00 -3°C° 0 mm 1 mps 758 mmHg 95%

2 December, Wednesday

Time Temperature Precipitation Wind Pressure Humidity
00:00 -3°C° 0 mm 1 mps 758 mmHg 94%
01:00 -3°C° 0 mm 1 mps 758 mmHg 94%
02:00 -3°C° 0 mm 1 mps 758 mmHg 94%
03:00 -3°C° 0 mm 1 mps 758 mmHg 94%
04:00 -3°C° 0 mm 1 mps 758 mmHg 94%
05:00 -3°C° 0 mm 1 mps 757 mmHg 94%
06:00 -4°C° 0 mm 1 mps 758 mmHg 94%
07:00 -4°C° 0 mm 1 mps 758 mmHg 94%
08:00 -4°C° 0 mm 1 mps 758 mmHg 94%
09:00 -5°C° 0 mm 2 mps 758 mmHg 91%
10:00 -4°C° 0 mm 2 mps 758 mmHg 88%
11:00 -4°C° 0 mm 2 mps 758 mmHg 85%
12:00 -3°C° 0 mm 2 mps 757 mmHg 87%
13:00 -3°C° 0 mm 2 mps 757 mmHg 88%
14:00 -3°C° 0 mm 2 mps 757 mmHg 90%
15:00 -3°C° 0 mm 2 mps 757 mmHg 91%
16:00 -3°C° 0 mm 2 mps 756 mmHg 92%
17:00 -3°C° 0 mm 2 mps 756 mmHg 93%
18:00 -3°C° 0 mm 2 mps 756 mmHg 91%
19:00 -3°C° 0 mm 2 mps 756 mmHg 89%
20:00 -3°C° 0 mm 2 mps 756 mmHg 87%
21:00 -3°C° 0 mm 2 mps 756 mmHg 89%
22:00 -3°C° 0 mm 2 mps 756 mmHg 91%
23:00 -4°C° 0 mm 2 mps 756 mmHg 93%

3 December, Thursday

Time Temperature Precipitation Wind Pressure Humidity
00:00 -4°C° 0.1 mm 2 mps 756 mmHg 93%
01:00 -4°C° 0.1 mm 2 mps 756 mmHg 94%
02:00 -4°C° 0.1 mm 2 mps 755 mmHg 94%
03:00 -4°C° 0.1 mm 2 mps 755 mmHg 95%
04:00 -4°C° 0.1 mm 2 mps 755 mmHg 95%
05:00 -4°C° 0.1 mm 2 mps 755 mmHg 95%
06:00 -4°C° 0.1 mm 2 mps 755 mmHg 95%
07:00 -4°C° 0.1 mm 2 mps 755 mmHg 95%
08:00 -5°C° 0.1 mm 3 mps 755 mmHg 95%
09:00 -5°C° 0 mm 3 mps 755 mmHg 93%
10:00 -4°C° 0 mm 3 mps 755 mmHg 92%
11:00 -4°C° 0 mm 3 mps 755 mmHg 91%
12:00 -4°C° 0 mm 3 mps 755 mmHg 91%
13:00 -4°C° 0 mm 3 mps 755 mmHg 91%
14:00 -2°C° 0 mm 3 mps 755 mmHg 91%
15:00 -4°C° 0 mm 3 mps 755 mmHg 92%
16:00 -3°C° 0 mm 2 mps 754 mmHg 93%
17:00 -3°C° 0 mm 2 mps 754 mmHg 94%
18:00 -3°C° 0 mm 2 mps 754 mmHg 94%
19:00 -3°C° 0 mm 2 mps 754 mmHg 93%
20:00 -4°C° 0 mm 3 mps 754 mmHg 93%
21:00 -4°C° 0 mm 3 mps 754 mmHg 92%
22:00 -4°C° 0 mm 3 mps 754 mmHg 91%
23:00 -2°C° 0 mm 3 mps 754 mmHg 89%
Show more